Погода в Стерлитамаке

Хотите узнать прогноз погоды в Стерлитамаке? Тогда Вам сюда: Погода в Стерлитамаке

Поиск расширенной информации на нашем сайте:

Полезная информация:

Новости сайта



02.01.2020
Опубликован Долгосрочный прогноз погоды по городам России и ближнего зарубежья на январь 2020 года.
Карты: Прогноз на январь и февраль 2020 года, Сравнение прогнозируемой аномалии приземной температуры воздуха на январь 2020 года по разным моделям.




Погода в Стерлитамаке - сегодня

Время (UTC), дата Ветер
(°,м/с) 
Видим.   Явления Облачность Т
(°С)
Тd
(°С)
f(%) Тe
(°С)
Pmin
(гПа)
dP
(гПа)
Po
(мм)
O2
(г/м3)
Тmin Tmax R s Состояние
почвы
21 22.09.20 210 (ЮЗ) 10 км    10/6 600 м кучево-дожд., средняя 
[Cb cap|Ac As]
+11.7 +6.2 69 +12  1007.1  -2.6  743  286           
00 23.09.20 250 (З) 10 км    10/10 600 м кучево-дожд. 
[Cb cap]
+12.1 +7.1 71 +12  1005.3  -1.8  742  285           
03 23.09.20 250 (З) 10 км    10/10 600 м кучево-дожд. 
[Cb cap]
+11.9 +8.1 78 +12  1005  -0.3  742  285  +10.2        влажная 
06 23.09.20 300 (СЗ) 10 км    9/9 600 м кучево-дожд. 
[Cb cap]
+14.8 +8.2 65 +15  1005.3  0.4  742  282           
09 23.09.20 320 (СЗ) 6-13{13}  10 км    9/9 600 м кучево-дожд. 
[Cb cap]
+16.4 +3.5 42 +16  1006.4  1.1  743  282           
12 23.09.20 340 (С) 6-12{14}  20000 м    9/3 600 м верхняя 
[Sc|Ci fib]
+16.1 +1.5 37 +16  1008.9  2.4  745  283           
15 23.09.20 340 (С) 2{12}  10 км    3/0 средняя 
[Ac trans]
+13.1 +1.1 44 +14  1012.2  3.1  747  287    +17.4       
18 23.09.20 330 (СЗ) 10 км    ясно 
+10.7 +0.9 51 +11  1014.8  2.4  749  290           
21 23.09.20 340 (С) 10 км    ясно 
+8.8 +0.8 57 +9  1017  750  293           
00 24.09.20 350 (С) 10 км    ясно 
+6 +1.1 71 +7  1019.9  2.7  752  296           
03 24.09.20 тихо ()   20000 м    ясно 
+3.2 +1.5 89 +3  1023  2.8  754  300  +1.9        сухая 
06 24.09.20 360 (С) 20000 м    1/0 верхняя 
[Ci fib]
+10.3 +2.3 58 +10  1025  2.4  756  293           
09 24.09.20 350 (С) 20000 м    1/0 верхняя 
[Ci fib]
+13.7 +0.8 41 +14  1025.4  0.5  757  290           
12 24.09.20 020 (С) 20000 м    ясно 
+14.6 +0.6 38 +15  1025.9  0.6  757  289           
15 24.09.20 тихо ()   10 км    ясно 
+6.6 +2.6 76 +7  1027.6  1.2  758  298    +14.8       
18 24.09.20 тихо ()   10 км    ясно 
+3.1 +1.3 88 +3  1029.1  1.2  759  302           
21 24.09.20 тихо ()   10 км    ясно 
+1.6 +0 89 +2  1029.9  0.7  759  304           
00 25.09.20 тихо ()   10 км    ясно 
-0.1 -1.6 90 -0  1031.2  1.2  760  307           
03 25.09.20 тихо ()   20000 м    ясно 
+0.9 -0.5 90 +1  1032.1  761  306  -0.5        сухая 
06 25.09.20 тихо ()   20000 м    ясно 
+10.3 +2.2 57 +10  1032  0.5  761  295           
09 25.09.20 070 (В) 20000 м    ясно 
+16.2 +0.2 34 +18  1031.1  -0.6  761  289           
12 25.09.20 300 (СЗ) 20000 м    1/0 верхняя 
[Ci fib]
+17.3 -1.3 28 +19  1030.3  -0.7  760  288           
15 25.09.20 тихо ()   10 км    ясно 
+7.4 +3.3 75 +7  1030.9  760  298    +17.8       
18 25.09.20 тихо ()   10 км    ясно 
+4.3 +2.5 88 +4  1031.5  0.4  761  301           
21 25.09.20 тихо ()   10 км    ясно 
+3.3 +1.8 90 +3  1032.3  0.7  761  303           
Время (UTC), дата Ветер
(°,м/с) 
Видим.   Явления Облачность Т
(°С)
Тd
(°С)
f(%) Тe
(°С)
Pmin
(гПа)
dP
(гПа)
Po
(мм)
O2
(г/м3)
Тmin Tmax R s Состояние
почвы

Для получения пояснительной информации подведите курсор к названию столбца.

ПОГОДА в Стерлитамаке - архив

Всё, что Вы хотите узнать о погоде в Стерлитамаке - удобно и подробно!

Выберите нужную дату (начиная с 1 января 2019* года) и нажмите кнопку "Найти".
Будут отображены архивные сводки погоды по пункту Стерлитамак, начиная с указанной даты.


Отображать данные в формате CSV (для использования в таблицах Excel)


Внимание! Наш архив погоды предназначен исключительно для личного некоммерческого использования в познавательных целях. Если Вам необходимы официальные справки о состоянии погоды (для производственных, юридических, коммерческих и т.п. целей), обращайтесь в органы Росгидромета.

*Примечание: данная дата относится к архиву по метеостанциям СССР (Россия, СНГ, Балтия).
Архив по метеостанциям Зарубежной Европы и Азии (кроме Китая) хранится 10 дней, по другим регионам земного шара (Китай, Африка, Америка, Австралия, Океания) - 1 день.

Стерлитамак - район местоположения метеостанции


Название, широта, долгота, высота метеостанции:
Стерлитамак 53.6°ш. 56°д. 137 м над ур. моря [Российская Федерация]

Дополнительная информация

В oтличие oт бoльшинства пoгoдных сайтoв мы публикуем пoдрoбную метеoинфoрмацию в детальнoм прoфессиoнальнoм фoрмате.

Характеристики температуры и влажнoсти вoздуха измеряются на высoте 2 м в тени вдали oт зданий и деревьев.
Скoрoсть ветра измеряется на высoте 10 м (на урoвне рoста челoвека скoрoсть ветра ниже в 1.5-2 раза). Если метеoстанция нахoдится в гoрoде или в лесу, тo скoрoсть ветра занижена на 2-4 м/с пo сравнению с oткрытым местoм. Скoрoсть ветра над акватoриями крупных рек и oзёр, а также на вершинах хoлмoв на 2-5 м/с выше, чем в oбычных услoвиях.
Атмoсфернoе давление в разных тoчках местнoсти мoжет значительнo oтличаться oт давления на метеoстанции, в зависимoсти oт услoвий рельефа (при пoдъёме на 10 м давление пoнижается примернo на 1 мм рт.ст.).